Погода в Алцынхуте

Россия / Республика Калмыкия     47°02′08″N   44°55′28″E
темп.,
°C
ветер,
м/с
пор.,
м/с
влажн.,
%
обл.,
%
осадки,
мм/ч
давл.,
гПа
погр.,
м
13 мая, чт
чт1300:00+16св46560 0.0 101594
03:00+14св35635 0.0 101586
06:00+15ссв23700 0.0 1015126
09:00+20ююв11530 0.0 1015511
12:00+24ююв23390 0.0 10151034
15:00+27юв34310 0.0 10151292
18:00+27вюв34365 0.0 1015103
21:00+22в44435 0.0 101542
14 мая, пт
пт1400:00+19юв47585 0.0 1015114
03:00+16юв466626 0.0 101698
06:00+17юв386998 0.0 1016228
09:00+25юв610415 0.0 1015594
12:00+31юв812250 0.0 10151537
15:00+33юв1114180 0.0 10142262
18:00+28юв1014260 0.0 1014635
21:00+23юв816292 0.0 1015434
15 мая, сб
сб1500:00+20вюв614355 0.0 1015321
03:00+18вюв513355 0.0 1015223
06:00+19вюв514410 0.0 1015286
09:00+27юв914241 0.0 1015808
12:00+32юв1013145 0.0 10142341
15:00+32юв1112145 0.0 10132597
18:00+29юв813210 0.0 1013508
21:00+23юв614350 0.0 1015306
16 мая, вс
вс1600:00+20вюв513425 0.0 1014234
03:00+18вюв494519 0.0 1014138
06:00+20вюв48448 0.0 1014181
09:00+27вюв692988 0.0 1013647
12:00+33юв101217100 0.0 10113262
15:00+32юв111218100 0.0 10103099
18:00+29юв8132361 0.0 1010626
21:00+25вюв715290 0.0 1011385
17 мая, пн
пн1700:00+21в614333 0.0 1010290
03:00+20в6153263 0.0 1009260
06:00+20в614415 0.0 1009286
09:00+29вюв1014228 0.0 10091118
12:00+32вюв11131336 0.0 10082770
15:00+32юв111213100 0.0 10082927
18:00+29юв7121890 0.0 1009412
21:00+24вюв452399 0.0 101058